TimePST,TemperatureF,Dew PointF,Humidity,Sea Level PressureIn,VisibilityMPH,Wind Direction,Wind SpeedMPH,Gust SpeedMPH,PrecipitationIn,Events,Conditions,WindDirDegrees,DateUTC
12:15 AM,41.0,39.2,93,30.08,10.0,SSE,12.7,-,N/A,,Clear,150,2013-01-22 08:15:00
12:35 AM,42.8,39.2,87,30.07,10.0,SE,11.5,-,N/A,,Clear,140,2013-01-22 08:35:00
12:55 AM,41.0,37.4,87,30.07,10.0,SE,12.7,-,N/A,,Clear,140,2013-01-22 08:55:00
1:15 AM,41.0,39.2,93,30.07,10.0,SSE,11.5,-,N/A,,Clear,160,2013-01-22 09:15:00
1:35 AM,42.8,37.4,81,30.07,10.0,SSE,9.2,-,N/A,,Clear,150,2013-01-22 09:35:00
1:55 AM,44.6,37.4,76,30.08,10.0,SSE,6.9,-,N/A,,Clear,160,2013-01-22 09:55:00
2:15 AM,42.8,37.4,81,30.08,10.0,SE,10.4,-,N/A,,Clear,130,2013-01-22 10:15:00
2:35 AM,41.0,37.4,87,30.08,10.0,SSE,8.1,-,N/A,,Clear,150,2013-01-22 10:35:00
2:55 AM,42.8,35.6,76,30.07,10.0,SE,10.4,-,N/A,,Clear,140,2013-01-22 10:55:00
3:15 AM,41.0,35.6,81,30.07,10.0,SSE,9.2,-,N/A,,Clear,150,2013-01-22 11:15:00
3:35 AM,42.8,35.6,76,30.06,10.0,SSE,10.4,-,N/A,,Clear,150,2013-01-22 11:35:00
3:55 AM,41.0,35.6,81,30.05,10.0,SSE,8.1,-,N/A,,Clear,150,2013-01-22 11:55:00
4:15 AM,41.0,35.6,81,30.04,10.0,SE,10.4,-,N/A,,Clear,140,2013-01-22 12:15:00
4:35 AM,39.2,35.6,87,30.03,10.0,SE,11.5,-,N/A,,Clear,140,2013-01-22 12:35:00
4:55 AM,39.2,35.6,87,30.02,10.0,SE,11.5,-,N/A,,Clear,140,2013-01-22 12:55:00
5:15 AM,41.0,33.8,76,30.02,10.0,South,9.2,-,N/A,,Clear,170,2013-01-22 13:15:00
5:35 AM,42.8,33.8,70,30.02,10.0,SSE,9.2,-,N/A,,Clear,150,2013-01-22 13:35:00
5:55 AM,41.0,33.8,76,30.02,10.0,SSE,9.2,-,N/A,,Clear,150,2013-01-22 13:55:00
6:15 AM,42.8,32.0,66,30.02,10.0,SE,10.4,-,N/A,,Clear,140,2013-01-22 14:15:00
6:35 AM,41.0,33.8,76,30.02,10.0,SSE,9.2,-,N/A,,Clear,150,2013-01-22 14:35:00
6:55 AM,41.0,33.8,76,30.02,10.0,SSE,9.2,-,N/A,,Clear,150,2013-01-22 14:55:00
7:15 AM,42.8,33.8,70,30.03,10.0,SE,10.4,-,N/A,,Clear,140,2013-01-22 15:15:00
7:35 AM,42.8,32.0,66,30.03,10.0,SSE,8.1,-,N/A,,Clear,150,2013-01-22 15:35:00
7:55 AM,42.8,32.0,66,30.03,10.0,SSE,9.2,-,N/A,,Clear,150,2013-01-22 15:55:00
8:15 AM,42.8,33.8,70,30.03,10.0,SSE,9.2,-,N/A,,Clear,160,2013-01-22 16:15:00
8:35 AM,44.6,33.8,66,30.02,10.0,SSE,10.4,-,N/A,,Clear,150,2013-01-22 16:35:00
8:55 AM,44.6,33.8,66,30.02,10.0,SSE,10.4,-,N/A,,Clear,150,2013-01-22 16:55:00
9:15 AM,44.6,33.8,66,30.02,10.0,SE,11.5,-,N/A,,Clear,140,2013-01-22 17:15:00
9:35 AM,46.4,35.6,66,30.03,10.0,SSE,8.1,-,N/A,,Clear,150,2013-01-22 17:35:00
9:55 AM,46.4,35.6,66,30.03,10.0,SSE,9.2,-,N/A,,Clear,150,2013-01-22 17:55:00
10:15 AM,48.2,35.6,62,30.04,10.0,SE,9.2,-,N/A,,Clear,140,2013-01-22 18:15:00
10:35 AM,48.2,37.4,66,30.03,10.0,SE,10.4,-,N/A,,Clear,130,2013-01-22 18:35:00
10:55 AM,50.0,35.6,58,30.04,10.0,SSE,8.1,-,N/A,,Clear,160,2013-01-22 18:55:00
11:15 AM,50.0,35.6,58,30.04,10.0,South,8.1,-,N/A,,Clear,180,2013-01-22 19:15:00
11:35 AM,51.8,35.6,54,30.03,10.0,Calm,Calm,-,N/A,,Clear,0,2013-01-22 19:35:00
11:55 AM,53.6,35.6,51,30.02,10.0,Calm,Calm,-,N/A,,Clear,0,2013-01-22 19:55:00
12:15 PM,53.6,35.6,51,30.01,10.0,SSE,5.8,-,N/A,,Clear,160,2013-01-22 20:15:00
12:35 PM,55.4,35.6,47,30.00,10.0,Calm,Calm,-,N/A,,Clear,0,2013-01-22 20:35:00
12:55 PM,55.4,37.4,51,29.99,10.0,Calm,Calm,-,N/A,,Clear,0,2013-01-22 20:55:00
1:15 PM,57.2,37.4,48,29.98,10.0,Calm,Calm,-,N/A,,Clear,0,2013-01-22 21:15:00
1:35 PM,57.2,39.2,51,29.97,9.0,Calm,Calm,-,N/A,,Clear,0,2013-01-22 21:35:00
1:55 PM,59.0,39.2,48,29.97,10.0,Calm,Calm,-,N/A,,Clear,0,2013-01-22 21:55:00
2:15 PM,60.8,39.2,45,29.96,10.0,Calm,Calm,-,N/A,,Clear,0,2013-01-22 22:15:00
2:35 PM,60.8,39.2,45,29.96,10.0,Calm,Calm,-,N/A,,Clear,0,2013-01-22 22:35:00
2:55 PM,59.0,39.2,48,29.96,10.0,Calm,Calm,-,N/A,,Clear,0,2013-01-22 22:55:00
3:15 PM,59.0,37.4,45,29.95,10.0,ESE,9.2,-,N/A,,Clear,120,2013-01-22 23:15:00
3:35 PM,60.8,37.4,42,29.93,10.0,ESE,4.6,-,N/A,,Clear,110,2013-01-22 23:35:00
3:55 PM,59.0,37.4,45,29.93,10.0,Calm,Calm,-,N/A,,Clear,0,2013-01-22 23:55:00
4:15 PM,60.8,35.6,39,29.92,10.0,SE,4.6,-,N/A,,Clear,130,2013-01-23 00:15:00
4:35 PM,59.0,37.4,45,29.92,10.0,Calm,Calm,-,N/A,,Clear,0,2013-01-23 00:35:00
4:55 PM,57.2,35.6,44,29.92,10.0,ESE,6.9,-,N/A,,Clear,110,2013-01-23 00:55:00
5:15 PM,59.0,33.8,39,29.92,10.0,ESE,8.1,-,N/A,,Clear,110,2013-01-23 01:15:00
5:35 PM,57.2,35.6,44,29.92,10.0,ESE,4.6,-,N/A,,Clear,110,2013-01-23 01:35:00
5:55 PM,57.2,32.0,38,29.92,10.0,East,3.5,-,N/A,,Clear,100,2013-01-23 01:55:00
7:35 PM,59.0,32.0,36,29.91,10.0,SE,15.0,-,N/A,,Clear,130,2013-01-23 03:35:00
7:55 PM,62.6,28.4,27,29.90,10.0,SE,12.7,-,N/A,,Clear,140,2013-01-23 03:55:00
8:15 PM,62.6,28.4,27,29.91,10.0,SE,11.5,-,N/A,,Clear,140,2013-01-23 04:15:00
8:35 PM,62.6,26.6,26,29.91,10.0,SSE,12.7,-,N/A,,Clear,150,2013-01-23 04:35:00
8:55 PM,60.8,28.4,29,29.91,10.0,SSE,10.4,-,N/A,,Clear,150,2013-01-23 04:55:00
9:15 PM,60.8,28.4,29,29.92,10.0,SE,15.0,19.6,N/A,,Clear,140,2013-01-23 05:15:00
9:35 PM,60.8,26.6,27,29.92,10.0,SE,12.7,-,N/A,,Clear,140,2013-01-23 05:35:00
9:55 PM,60.8,28.4,29,29.92,10.0,SE,13.8,-,N/A,,Clear,140,2013-01-23 05:55:00
10:15 PM,59.0,30.2,34,29.92,10.0,SE,15.0,-,N/A,,Clear,140,2013-01-23 06:15:00
10:35 PM,59.0,28.4,31,29.93,10.0,SSE,12.7,-,N/A,,Clear,150,2013-01-23 06:35:00
10:55 PM,59.0,28.4,31,29.93,10.0,SE,13.8,-,N/A,,Clear,140,2013-01-23 06:55:00
11:15 PM,59.0,26.6,29,29.93,10.0,SE,15.0,-,N/A,,Clear,140,2013-01-23 07:15:00
11:35 PM,60.8,26.6,27,29.92,10.0,SE,16.1,26.5,N/A,,Mostly Cloudy,140,2013-01-23 07:35:00
11:55 PM,60.8,24.8,25,29.92,10.0,SE,16.1,-,N/A,,Scattered Clouds,140,2013-01-23 07:55:00